Sigfox identifier Datetime Temperature Humidity SNR
003938F3 2018-10-09 08:59:18 20.8 44 21.8
003938F3 2018-10-09 07:58:39 20.8 43 22
003938F3 2018-10-09 06:57:58 20.7 42 22
003938F3 2018-10-09 05:57:19 20.8 42 22.1
003938F3 2018-10-09 04:56:38 20.8 41 21.2
003938F3 2018-10-09 01:54:38 20.8 40 20.8
003938F3 2018-10-09 00:54:00 20.8 39 21.4
003938F3 2018-10-08 23:53:21 20.8 39 21.3
003938F3 2018-10-08 22:52:44 20.9 38 21.6
003938F3 2018-10-08 21:52:05 20.9 38 21.5
003938F3 2018-10-08 20:51:29 20.9 38 21.6
003938F3 2018-10-08 19:50:47 21 38 21.7
003938F3 2018-10-08 18:50:07 21 37 21.8
003938F3 2018-10-08 17:49:29 21.1 37 21.8
003938F3 2018-10-08 16:48:53 21.1 37 21.7
003938F3 2018-10-08 15:48:14 21 36 21.9
003938F3 2018-10-08 14:47:33 21 36 22.2
003938F3 2018-10-08 13:46:51 20.8 35 22.2
003938F3 2018-10-08 12:46:11 20.8 35 22.3
003938F3 2018-10-08 11:45:28 20.7 34 22.6
003938F3 2018-10-08 10:44:47 20.6 30 23
003938F3 2018-10-08 09:44:07 20.4 30 23.1
003938F3 2018-10-08 08:43:26 20.3 30 23.1
003938F3 2018-10-08 07:42:48 20.2 31 23.2
003938F3 2018-10-08 06:42:10 20.2 32 22.9
003938F3 2018-10-08 05:41:31 20.2 33 23.1
003938F3 2018-10-08 04:40:53 20.2 33 23.1
003938F3 2018-10-08 03:40:15 20.2 33 23
003938F3 2018-10-08 02:39:36 20.2 34 23.2
003938F3 2018-10-08 01:38:57 20.3 34 23.2
003938F3 2018-10-08 00:38:18 20.3 35 23.4
003938F3 2018-10-07 23:37:37 20.4 35 23
003938F3 2018-10-07 22:36:57 20.4 36 23.8
003938F3 2018-10-07 21:36:17 20.4 36 23.7
003938F3 2018-10-07 20:35:39 20.5 37 23.9
003938F3 2018-10-07 19:34:59 20.5 37 23.9
003938F3 2018-10-07 18:34:18 20.6 37 24
003938F3 2018-10-07 17:33:39 20.4 37 24.1
003938F3 2018-10-07 16:32:56 20.4 37 24.2
003938F3 2018-10-07 15:32:14 20.4 37 24.2
003938F3 2018-10-07 14:31:34 20.4 37 24.4
003938F3 2018-10-07 13:30:55 20.4 37 24.3
003938F3 2018-10-07 12:30:15 20.4 37 24.3
003938F3 2018-10-07 11:29:34 20.4 37 24.5
003938F3 2018-10-07 10:28:54 20.4 37 24.4
003938F3 2018-10-07 09:28:14 20.4 37 24.3
003938F3 2018-10-07 08:27:33 20.4 38 24.3
003938F3 2018-10-07 07:26:54 20.5 38 24.3
003938F3 2018-10-07 06:26:14 20.5 38 24.4
003938F3 2018-10-07 05:25:36 20.6 38 24.5
003938F3 2018-10-07 04:24:57 20.6 38 24.4
003938F3 2018-10-07 03:24:18 20.5 39 24.4
003938F3 2018-10-07 02:23:41 20.6 39 24.6
003938F3 2018-10-07 01:23:02 20.6 39 24.4
003938F3 2018-10-07 00:22:22 20.6 39 24.5
003938F3 2018-10-06 23:21:42 20.6 39 24.4
003938F3 2018-10-06 22:21:02 20.6 39 24.5
003938F3 2018-10-06 21:20:22 20.6 39 24
003938F3 2018-10-06 20:19:42 20.6 39 24
003938F3 2018-10-06 19:19:04 20.6 39 23.9
003938F3 2018-10-06 18:18:25 20.7 38 23.8
003938F3 2018-10-06 17:17:46 20.8 39 23.6
003938F3 2018-10-06 16:17:05 20.8 39 23.6
003938F3 2018-10-06 15:16:24 20.8 39 23.6
003938F3 2018-10-06 14:15:43 20.7 39 23.7
003938F3 2018-10-06 13:15:03 20.7 39 23.4
003938F3 2018-10-06 12:14:19 20.7 39 23.2
003938F3 2018-10-06 11:13:37 20.8 39 23.3
003938F3 2018-10-06 10:12:55 20.7 39 23.1
003938F3 2018-10-06 09:12:11 20.7 39 23.1
003938F3 2018-10-06 08:11:28 20.7 39 22.9
003938F3 2018-10-06 07:10:45 20.8 39 22.9
003938F3 2018-10-06 06:10:04 20.8 39 22.9
003938F3 2018-10-06 05:09:24 20.8 40 23.2
003938F3 2018-10-06 04:08:43 20.8 40 23.1
003938F3 2018-10-06 03:08:02 20.9 41 23.1
003938F3 2018-10-06 02:07:18 20.9 41 23
003938F3 2018-10-06 01:06:36 21 41 22
003938F3 2018-10-06 00:05:55 21 41 22.3
003938F3 2018-10-05 23:05:15 21 42 22.1
003938F3 2018-10-05 22:04:31 21.2 42 21.8
003938F3 2018-10-05 21:03:48 21.3 43 21.5
003938F3 2018-10-05 20:03:07 21.4 43 21
003938F3 2018-10-05 19:02:25 21.5 43 19.6
003938F3 2018-10-05 18:01:44 21.7 44 16.3
003938F3 2018-10-05 17:01:01 21.9 44 16.9
003938F3 2018-10-05 16:00:15 22.1 55 0